Miscellaneous Local Product
Issued by NWS North Platte, NE

Home | Current Version | Previous Version | Text Only | Print | Product List | Glossary On
Versions: 1 2 3 4 5 6 7 8 9 10 11 12 13 14 15 16 17 18 19 20 21 22 23 24 25 26 27 28 29 30 31 32 33 34 35 36 37 38 39 40 41 42 43 44 45 46 47 48 49 50
000
AXUS43 KLBF 282210
MISLBF


WESTERN AND NORTH CENTRAL NEBRASKA HOURLY WEATHER ROUNDUP
NATIONAL WEATHER SERVICE NORTH PLATTE NE
500 PM CDT THU AUG 28 2014

***STATIONS NOT REPORTING VARIABLES SUCH AS SKY/WEATHER OR
PRESSURE ARE PROVIDED BY THE NEBRASKA DEPARTMENT OF
ROADS...RAWS...AND APRS NETWORKS...AND ARE NOT UNDER
NATIONAL WEATHER SERVICE QUALITY CONTROL***

...OBSERVATIONS IN AND NEAR THE EASTERN PANHANDLE OF NEBRASKA...

CITY           SKY/WX    TMP DP  RH WIND       PRES   REMARKS
PINE RIDGE     CLOUDY    68  57  68 W7        29.98F
CHADRON        LGT RAIN  64  59  83 SW9       30.01F
ALLIANCE       LGT RAIN  63  61  93 N15       30.01F
SIDNEY         LGT RAIN  67  56  67 NW20      30.06F
WHITECLAY        N/A     68  54  59 W7          N/A
RUSHVILLE        N/A     69  51  52 NW18        N/A
GORDON           N/A     74  56  53 W13         N/A
CRESCENT LAKE    N/A     63  56  77 W7G20       N/A
LISCO            N/A     70  60  70 W14         N/A
BIG SPRINGS      N/A     74  64  71 NW8         N/A
$$

...OBSERVATIONS IN NORTH CENTRAL NEBRASKA...

CITY           SKY/WX    TMP DP  RH WIND       PRES   REMARKS
VALENTINE      MOSUNNY   77  64  64 N10       29.89F
THEDFORD         N/A    N/A N/A N/A N13       29.87F
AINSWORTH      PTSUNNY   73  67  79 N14       29.88R
O`NEILL        MOSUNNY   82  69  66 S9        29.83F
ORD            MOSUNNY   81  66  60 S9        29.83F
BROKEN BOW     PTSUNNY   82  68  62 SE8       29.85F
BROWNLEE         N/A     78  66  64 N10         N/A
SPRINGVIEW       N/A     75  66  73 MISG        N/A
ROSE             N/A     86  67  52 CALM        N/A
NEWPORT          N/A     82  67  60 S5          N/A
SARGENT          N/A     81  69  67 CALM        N/A
COMSTOCK         N/A     88  70  55 W5          N/A  HX  93
CHAMBERS         N/A     83  69  63 MISG        N/A
EWING            N/A     79  73  80 CALM        N/A
$$

...OBSERVATIONS IN SOUTHWEST NEBRASKA AND FAR NORTHEAST COLORADO...

CITY           SKY/WX    TMP DP  RH WIND       PRES   REMARKS
WRAY             N/A     74  57  54 NW14G23   29.99R
HOLYOKE        MOCLDY    75  59  57 NW18      30.00S
IMPERIAL       MOSUNNY   78  60  53 NW18G24   29.94F
OGALLALA       PTSUNNY   74  57  54 N23G30    29.95S
NORTH PLATTE   MOSUNNY   80  61  52 W10       29.88F
MCCOOK         MOSUNNY   82  61  48 W8        29.89F
LEXINGTON      MOSUNNY   81  67  62 SE6       29.86F
PAXTON           N/A     76  65  68 W8          N/A
SUTHERLAND       N/A     83  63  50 W16         N/A
BRADY            N/A     81  65  58 CALM        N/A
GOTHENBURG       N/A     84  56  38 CALM        N/A
CALLAWAY         N/A     82  68  62 W8          N/A
$$

...SOME WEATHER OBSERVATIONS FROM AROUND THE REGION...

CITY           SKY/WX    TMP DP  RH WIND       PRES   REMARKS
DENVER         CLOUDY    64  47  53 NW25      30.17R
LARAMIE        PTSUNNY   62  48  60 E3        30.22F
CHEYENNE       CLOUDY    63  49  60 NW9       30.17F
RAPID CITY     CLOUDY    77  52  41 CALM      29.95F
PIERRE         PTSUNNY   74  67  78 N12       29.85S
WINNER         FAIR      79  65  62 NW9       29.85S
SIOUX FALLS    CLOUDY    73  69  87 E13       29.87S
OMAHA          CLOUDY    82  69  64 S10       29.86F
GRAND ISLAND   PTSUNNY   80  69  69 SW9       29.86F
KANSAS CITY    MOSUNNY   91  68  46 S16       29.87F HX  95
WICHITA        LGT RAIN  76  69  79 SE13      29.89F
HAYS           MOSUNNY   84  64  51 SW12      29.87F
LIBERAL        SUNNY     88  55  33 W5        29.93S
GOODLAND       MOSUNNY   80  56  43 N9        29.97F
$$



USA.gov is the U.S. government's official web portal to all federal, state and local government web resources and services.